323P/SOHO (2025)

Japanese version
Home page
Updated on February 9, 2025

---------------------------------------------------------------------

* Profile

* Orbital Elements

Epoch 2025 May 5.0 TT = JDT 2460800.5                                           
T 2025 Mar. 14.23068 TT                                 Pike                    
q   0.0403956            (2000.0)            P               Q                  
n   0.25857643     Peri.  353.32423     +0.73489623     +0.67607040             
a   2.4401139      Node   323.95033     -0.61794263     +0.63506993             
e   0.9834452      Incl.    5.21064     -0.27941805     +0.37365090             
P   3.81                                                                        
From 21 observations 2025 Jan. 27-Feb. 7, mean residual 0".3.                   

* Finding Charts

* Magnitudes Graph

        H = 21.0  G = 0.15                [   ,-30]  (             - 2025 Feb. 12)
        m1 = 24.0 + 5 log d + 13.0 log r  [-30, 21]  (2025 Feb. 12 - 2025 Apr.  4)
        H = 21.0  G = 0.15                [ 21,   ]  (2025 Apr.  4 -             )

---------------------------------------------------------------------

The orbital elements are published on M.P.E.C. 2025-C143.
The charts are made with StellaNavigator Ver.11 (AstroArts).
The magnitudes graphs are made with Comet for Windows.

---------------------------------------------------------------------

Copyright(C) Seiichi Yoshida (comet@aerith.net). All rights reserved.